SCP
0 0 0 0 0 0 0 0 0 0 0 0 0 0 0 0 0 0 0 0 0 0
0 0 0 0 0 0 0 0 0 0 0 0 0 0 0 0 0 0 0 0 0 0
0 0 0 0 0 0 0 0 0 0 0 0 0 0 0 0 0 0 0 0 0 0
0 0 0 0 0 0 0 0 0 0 0 0 0 0 0 0 0 0 0 0 0 0
0 0 0 0 0 0 0 0 0 0 0 0 0 0 0 0 0 0 0 0 0 0
0 0 0 0 0 0 0 0 0 0 0 0 0 0 0 0 0 0 0 0 0 0
0 0 0 0 0 0 0 0 0 0 0 0 0 0 0 0 0 0 0 0 0 0
0 0 0 0 0 0 0 0 0 0 0 0 0 0 0 0 0 0 0 0 0 0
0 0 0 0 0 0 0 0 0 0 0 0 0 0 0 0 0 0 0 0 0 0
0 0 0 0 0 0 0 0 0 0 0 0 0 0 0 0 0 0 0 0 0 0
0 0 0 0 0 0 0 0 0 0 0 0 0 0 0 0 0 0 0 0 0 0
0 0 0 0 0 0 0 0 0 0 0 0 0 0 0 0 0 0 0 0 0 0
0 0 0 0 0 0 0 0 0 0 0 0 0 0 0 0 0 0 0 0 0 0
0 0 0 0 0 0 0 0 0 0 0 0 0 0 0 0 0 0 0 0 0 0
Wind_Speed_500mb
79 73 68 64 58 49 36 29 24 16 11 12 16 21 26 27 29 30 30 30 30 30
83 78 68 63 54 44 38 32 27 20 15 14 16 19 24 26 28 29 31 32 33 34
89 81 65 59 55 48 42 36 34 25 18 16 15 19 24 27 29 31 34 36 38 39
94 78 65 60 56 50 43 38 36 26 20 17 16 20 24 28 32 36 38 42 44 45
89 77 66 58 53 47 42 39 34 27 24 19 18 20 25 32 38 43 46 48 50 51
85 74 59 53 52 47 43 37 35 33 28 23 21 23 28 38 48 54 55 57 58 59
83 69 55 52 51 47 41 38 37 35 31 29 26 28 36 48 59 63 63 65 66 63
77 63 56 53 51 45 41 42 40 39 37 30 27 36 44 57 68 70 71 70 67 60
76 63 59 54 52 47 47 47 44 41 35 32 36 44 52 64 72 74 73 72 65 61
75 66 60 56 54 50 49 46 43 40 38 39 44 51 59 69 76 75 71 69 68 71
68 65 59 58 55 53 51 47 43 43 44 44 47 56 69 74 75 72 69 71 71 75
57 59 55 53 54 53 51 46 44 43 43 45 50 64 71 73 72 73 74 74 72 77
37 40 42 44 47 47 42 41 41 41 43 51 62 68 68 66 72 77 77 78 80 69
29 37 37 33 34 34 35 37 37 40 50 60 66 62 63 65 69 74 80 82 77 65
Wind_Direction_500mb
214 214 211 210 208 209 208 209 217 230 267 292 317 326 332 337 336 338 339 339 339 336
213 214 211 209 211 212 211 217 227 239 266 281 306 317 323 326 325 329 329 333 334 331
213 213 209 209 213 214 217 224 234 240 262 278 291 306 317 319 320 322 324 327 327 326
213 209 208 214 218 220 223 232 231 240 256 262 283 304 316 320 322 321 320 321 321 321
210 206 205 212 217 221 225 223 231 242 248 251 276 303 318 323 321 319 316 316 316 317
207 204 204 209 216 219 218 220 229 236 236 249 271 298 315 319 320 317 315 314 313 315
205 202 202 208 213 214 214 219 220 225 230 246 270 298 310 315 316 314 312 311 310 312
202 197 200 208 211 208 209 210 212 220 232 250 284 298 302 309 311 309 307 306 307 307
198 195 198 208 208 200 201 205 213 225 241 264 281 292 296 303 305 304 303 304 305 308
194 192 196 203 203 201 205 211 222 234 249 266 277 289 296 300 300 299 302 303 307 307
190 193 197 200 204 207 213 221 232 244 257 268 281 293 297 299 297 298 301 303 305 303
193 200 204 204 210 217 223 231 239 249 260 274 289 296 299 298 297 299 301 301 301 304
198 207 212 220 222 225 229 233 239 250 268 283 294 298 297 296 298 299 301 302 301 302
211 217 218 221 222 218 220 232 248 266 279 289 295 297 295 299 299 299 298 299 302 302
Wind_Speed_850mb
79 73 68 64 58 49 36 29 24 16 11 12 16 21 26 27 29 30 30 30 30 30
83 78 68 63 54 44 38 32 27 20 15 14 16 19 24 26 28 29 31 32 33 34
89 81 65 59 55 48 42 36 34 25 18 16 15 19 24 27 29 31 34 36 38 39
94 78 65 60 56 50 43 38 36 26 20 17 16 20 24 28 32 36 38 42 44 45
89 77 66 58 53 47 42 39 34 27 24 19 18 20 25 32 38 43 46 48 50 51
85 74 59 53 52 47 43 37 35 33 28 23 21 23 28 38 48 54 55 57 58 59
83 69 55 52 51 47 41 38 37 35 31 29 26 28 36 48 59 63 63 65 66 63
77 63 56 53 51 45 41 42 40 39 37 30 27 36 44 57 68 70 71 70 67 60
76 63 59 54 52 47 47 47 44 41 35 32 36 44 52 64 72 74 73 72 65 61
75 66 60 56 54 50 49 46 43 40 38 39 44 51 59 69 76 75 71 69 68 71
68 65 59 58 55 53 51 47 43 43 44 44 47 56 69 74 75 72 69 71 71 75
57 59 55 53 54 53 51 46 44 43 43 45 50 64 71 73 72 73 74 74 72 77
37 40 42 44 47 47 42 41 41 41 43 51 62 68 68 66 72 77 77 78 80 69
29 37 37 33 34 34 35 37 37 40 50 60 66 62 63 65 69 74 80 82 77 65
Wind_Direction_850mb
214 214 211 210 208 209 208 209 217 230 267 292 317 326 332 337 336 338 339 339 339 336
213 214 211 209 211 212 211 217 227 239 266 281 306 317 323 326 325 329 329 333 334 331
213 213 209 209 213 214 217 224 234 240 262 278 291 306 317 319 320 322 324 327 327 326
213 209 208 214 218 220 223 232 231 240 256 262 283 304 316 320 322 321 320 321 321 321
210 206 205 212 217 221 225 223 231 242 248 251 276 303 318 323 321 319 316 316 316 317
207 204 204 209 216 219 218 220 229 236 236 249 271 298 315 319 320 317 315 314 313 315
205 202 202 208 213 214 214 219 220 225 230 246 270 298 310 315 316 314 312 311 310 312
202 197 200 208 211 208 209 210 212 220 232 250 284 298 302 309 311 309 307 306 307 307
198 195 198 208 208 200 201 205 213 225 241 264 281 292 296 303 305 304 303 304 305 308
194 192 196 203 203 201 205 211 222 234 249 266 277 289 296 300 300 299 302 303 307 307
190 193 197 200 204 207 213 221 232 244 257 268 281 293 297 299 297 298 301 303 305 303
193 200 204 204 210 217 223 231 239 249 260 274 289 296 299 298 297 299 301 301 301 304
198 207 212 220 222 225 229 233 239 250 268 283 294 298 297 296 298 299 301 302 301 302
211 217 218 221 222 218 220 232 248 266 279 289 295 297 295 299 299 299 298 299 302 302